Wind_Speed
11 11 11 11 10 10 10 9 9 8 9 10 10 10 10 10 10 11 12 13 13 14 14 15 15 16 16 16 15 15 14 15 15 15 15 15 15 15 14 15 15 15 15
10 10 10 10 10 9 9 9 9 9 10 10 10 10 11 11 11 11 12 13 14 15 14 14 15 15 16 17 16 15 15 15 15 16 16 16 16 16 15 15 16 16 16
11 11 11 10 11 11 10 10 10 10 10 10 11 11 11 12 12 13 13 13 14 14 15 15 16 16 17 16 16 16 15 15 16 16 17 17 17 17 16 16 16 16 17
11 11 12 12 12 12 11 11 11 11 11 11 11 11 12 12 13 14 14 14 14 15 15 15 15 15 16 15 15 16 16 16 17 17 17 17 18 18 18 18 17 17 17
10 10 11 12 12 11 12 11 12 12 12 12 12 12 12 13 13 14 14 15 15 15 15 15 15 14 14 14 15 15 15 16 16 17 18 18 18 19 18 18 18 17 18
10 10 10 11 11 12 12 13 13 13 13 13 14 14 14 14 14 15 15 15 15 15 15 15 15 14 14 14 15 15 15 16 16 17 17 18 18 18 19 18 18 18 18
11 10 11 11 11 12 13 14 14 14 14 14 15 15 15 15 15 16 16 16 16 15 16 16 15 15 15 15 15 16 16 17 17 16 16 16 17 17 17 18 18 18 18
12 12 12 12 13 13 14 14 14 14 15 15 16 16 16 16 16 16 16 16 16 16 16 17 16 16 16 16 16 16 16 16 15 15 15 16 16 16 16 16 17 18 17
12 13 13 13 13 13 14 14 14 15 15 16 16 16 17 17 17 17 17 17 17 17 17 18 18 17 17 17 17 18 17 17 16 16 16 16 16 15 16 16 15 16 17
13 13 13 14 14 14 14 14 15 15 16 16 17 17 17 18 18 18 18 18 18 18 18 18 18 18 18 17 18 18 18 17 16 16 16 16 15 15 16 16 16 16 16
14 14 13 14 14 15 15 15 15 15 16 17 18 18 18 18 19 18 18 18 19 19 19 19 19 19 18 18 18 18 18 18 17 17 17 18 17 17 16 16 16 17 16
15 15 15 15 16 16 16 16 16 16 17 18 18 19 19 19 20 19 19 19 19 19 19 19 19 20 20 19 18 18 18 19 18 18 18 18 19 19 18 18 17 17 16
15 16 16 16 17 17 17 17 17 18 18 19 20 20 20 20 20 20 20 20 20 20 20 20 20 20 20 20 19 19 19 19 19 19 19 19 19 20 20 20 19 19 18
17 17 16 17 17 17 17 18 18 19 20 21 21 21 21 21 21 21 21 21 21 21 21 21 21 20 21 21 20 20 20 20 21 21 21 21 21 21 21 22 22 21 20
17 17 17 18 18 18 18 19 19 20 21 21 22 22 22 22 22 22 22 21 22 22 22 22 22 22 22 22 22 22 22 22 22 22 22 22 23 22 22 23 23 23 22
18 19 19 19 19 19 19 20 21 21 22 23 23 22 22 22 23 23 22 22 23 22 22 22 23 23 24 24 24 23 23 23 23 23 23 24 24 24 24 23 24 24 23
20 20 20 20 21 21 21 21 22 23 24 24 23 23 23 24 24 23 23 23 23 23 23 23 23 24 25 25 25 25 25 25 24 24 25 25 25 25 25 25 24 24 23
22 22 22 22 22 23 23 23 24 24 25 25 25 24 24 24 23 23 23 23 24 23 24 24 24 24 25 25 26 26 26 27 26 25 25 25 25 26 26 26 26 25 25
23 23 23 24 24 24 25 25 25 25 26 26 25 25 24 23 23 23 23 23 24 24 24 25 24 25 25 25 26 27 27 27 27 27 27 27 27 27 27 27 27 26 25
24 24 24 24 25 25 26 26 26 27 26 26 26 25 24 24 24 24 23 23 24 24 24 25 25 25 26 26 26 27 27 27 27 27 27 27 27 27 28 28 28 27 27
25 25 25 26 26 26 26 26 26 27 26 26 26 26 26 26 25 25 24 24 24 25 25 25 25 26 26 26 26 27 28 28 28 28 28 28 28 28 28 28 28 28 28
26 26 26 26 27 27 27 28 28 27 27 27 26 27 27 27 26 27 27 27 27 27 26 26 26 26 27 27 26 27 27 28 28 28 29 29 29 28 28 28 28 29 29
26 26 27 27 28 28 28 28 29 29 28 28 28 27 27 28 28 29 28 28 28 28 28 28 28 27 27 27 27 27 28 29 29 29 30 30 30 30 30 30 30 30 31
27 28 28 28 29 29 29 29 29 29 29 28 28 28 28 28 29 29 29 29 29 30 30 29 29 29 29 29 29 29 29 29 29 29 30 31 31 31 32 31 31 32 32
28 29 29 29 30 30 30 30 30 30 30 30 30 29 29 30 30 30 31 31 31 30 30 30 30 30 29 30 30 31 30 29 29 30 30 31 32 32 33 33 34 34 34
29 30 30 30 31 31 31 31 32 32 32 32 31 31 31 31 31 32 32 32 31 31 30 30 30 30 30 30 31 32 32 31 30 30 31 32 32 33 34 35 35 35 35
Wind_Direction
276 277 275 272 273 274 273 273 275 281 284 284 283 283 280 282 283 280 275 271 272 274 274 275 275 272 270 269 269 267 265 263 262 261 261 263 261 258 258 257 256 256 258
276 278 278 274 272 274 277 278 276 279 282 282 282 280 279 280 279 279 279 276 274 276 277 277 276 274 271 268 267 267 266 262 260 262 261 264 262 261 257 256 257 258 258
278 277 277 276 272 272 273 275 277 276 276 278 278 278 277 278 279 280 279 279 279 280 279 279 278 276 274 270 265 264 264 262 260 261 263 263 260 259 258 257 257 256 255
277 278 278 278 275 274 273 273 276 277 277 279 279 279 280 282 282 281 281 282 282 282 283 282 282 279 275 270 263 259 260 261 260 261 262 260 258 257 256 257 257 257 255
283 282 282 282 279 274 271 271 274 276 276 277 280 279 279 282 282 283 283 282 281 282 282 282 281 280 276 270 261 257 259 260 261 260 260 258 257 255 256 256 257 257 255
289 291 289 281 276 273 271 272 274 275 276 276 278 279 280 280 280 283 284 283 282 280 280 281 279 276 275 271 264 263 260 261 261 260 258 255 255 255 255 255 256 255 255
288 289 288 286 284 277 276 275 276 277 275 276 278 280 281 281 283 283 283 283 282 281 279 277 275 273 272 268 265 264 261 259 260 261 260 260 258 257 258 258 257 255 256
286 286 287 286 282 279 277 279 279 279 279 279 281 281 281 282 283 283 281 281 281 281 279 276 274 270 268 266 261 261 261 262 262 263 264 264 261 261 259 259 255 254 254
288 284 285 286 287 284 281 281 281 282 282 282 283 283 282 281 281 282 282 280 279 279 278 275 275 272 270 270 268 266 266 264 266 266 266 266 265 264 263 260 263 260 259
290 289 287 287 288 285 282 283 285 284 283 282 282 283 284 284 282 281 282 281 279 278 277 274 274 273 271 271 268 267 266 265 264 264 264 264 264 263 261 261 262 261 259
289 291 290 288 288 287 283 284 286 286 286 285 285 284 284 285 285 283 281 281 279 277 276 275 274 271 269 269 268 267 265 265 266 264 263 263 261 261 261 260 260 259 259
287 289 290 291 290 287 284 284 286 286 286 286 286 285 284 284 283 283 282 280 279 278 276 276 275 271 268 267 268 267 266 265 265 264 262 261 260 260 259 259 259 259 259
286 287 288 289 290 288 285 286 287 287 287 286 286 285 284 283 282 282 282 279 278 277 277 276 275 272 270 267 266 265 265 265 264 265 264 261 261 260 259 258 258 259 259
284 286 287 289 291 288 287 286 286 286 287 288 286 285 284 283 281 281 280 278 276 275 275 275 276 274 271 268 266 264 264 265 266 266 266 263 261 260 259 259 259 258 259
284 286 286 287 290 290 288 287 287 287 288 289 288 287 285 283 283 281 280 278 276 274 273 274 273 272 271 270 269 266 264 264 264 264 264 263 261 260 260 260 259 258 258
284 285 287 287 289 290 290 289 289 289 289 289 288 287 286 284 283 283 280 278 277 277 274 272 272 271 270 270 269 267 266 265 265 263 263 262 261 260 261 261 261 260 259
283 284 286 286 288 289 289 289 292 292 290 289 288 286 284 283 282 282 280 279 278 277 276 274 273 270 269 269 268 268 269 267 265 263 263 263 261 260 261 261 261 261 260
282 283 285 287 287 288 288 289 290 291 291 290 288 286 284 283 282 281 279 278 278 277 277 275 273 271 271 270 269 269 270 270 267 265 264 263 262 261 259 260 260 260 261
281 284 286 288 288 288 288 288 289 291 291 290 288 285 284 283 282 281 280 279 278 278 278 275 273 272 272 271 270 270 269 270 269 268 266 264 264 262 260 259 259 259 260
280 283 286 288 288 289 290 290 290 289 290 289 288 285 283 282 281 281 280 280 279 279 278 275 274 273 272 272 272 271 269 269 267 267 266 265 264 263 261 259 259 258 259
281 283 285 288 289 289 290 291 291 289 288 287 286 284 283 282 281 280 280 280 280 279 279 277 275 274 274 273 273 272 269 267 267 267 266 266 264 263 262 261 259 259 260
282 284 285 286 287 289 290 289 289 289 289 287 286 284 282 281 280 280 281 281 280 279 278 278 277 275 275 275 274 273 271 269 267 267 266 264 263 262 262 262 261 261 261
282 284 286 287 288 289 289 289 289 289 287 286 285 284 282 281 281 281 281 281 280 279 278 277 276 275 275 275 274 274 272 271 270 268 265 263 262 261 261 261 261 262 263
282 284 286 286 287 288 287 288 288 288 288 286 285 284 284 283 281 281 281 281 280 279 278 277 276 275 274 273 272 272 273 271 269 267 265 262 261 261 262 262 262 263 263
283 284 286 286 287 287 287 287 287 287 286 285 285 285 284 284 282 282 281 280 280 279 277 276 276 275 275 274 272 272 271 270 269 267 264 263 262 262 262 262 263 264 264
283 284 284 284 285 286 286 287 286 285 285 284 284 285 285 284 283 282 280 279 278 278 277 277 276 275 275 275 274 273 272 270 268 266 265 264 263 263 263 263 264 264 264
Height
5858 5858 5857 5857 5856 5856 5856 5855 5854 5854 5853 5853 5852 5851 5850 5850 5850 5849 5848 5848 5847 5847 5846 5846 5845 5844 5843 5843 5843 5843 5842 5842 5842 5842 5842 5843 5844 5844 5845 5845 5846 5847 5847
5856 5855 5855 5854 5854 5854 5853 5853 5852 5852 5851 5850 5850 5849 5848 5848 5847 5847 5846 5845 5845 5844 5843 5842 5841 5840 5839 5839 5839 5839 5839 5839 5839 5839 5839 5840 5840 5841 5842 5842 5843 5843 5844
5853 5853 5852 5852 5851 5851 5851 5850 5850 5849 5849 5848 5847 5847 5846 5845 5845 5844 5843 5842 5841 5840 5839 5838 5837 5836 5835 5834 5834 5835 5835 5835 5835 5836 5836 5836 5837 5838 5838 5839 5839 5840 5840
5851 5850 5850 5849 5849 5849 5848 5848 5847 5847 5846 5845 5845 5844 5843 5842 5842 5841 5840 5839 5838 5837 5836 5835 5833 5832 5830 5829 5829 5830 5831 5832 5832 5832 5832 5833 5833 5834 5834 5835 5835 5836 5837
5849 5848 5847 5847 5846 5846 5845 5845 5845 5844 5843 5843 5842 5841 5840 5839 5838 5838 5837 5836 5835 5834 5833 5832 5830 5829 5827 5825 5826 5827 5828 5829 5829 5829 5828 5829 5829 5830 5830 5831 5831 5832 5832
5847 5846 5845 5844 5844 5843 5843 5842 5841 5841 5840 5839 5839 5838 5837 5836 5835 5834 5833 5832 5831 5830 5829 5828 5827 5826 5825 5824 5824 5824 5825 5825 5825 5824 5824 5824 5825 5826 5826 5827 5827 5828 5828
5844 5843 5843 5842 5841 5840 5839 5839 5838 5837 5836 5836 5835 5834 5833 5832 5831 5830 5829 5828 5827 5826 5825 5825 5824 5823 5822 5821 5821 5821 5821 5821 5821 5821 5821 5821 5821 5822 5822 5822 5823 5823 5824
5842 5841 5840 5839 5838 5837 5836 5835 5835 5834 5833 5832 5831 5830 5830 5829 5827 5826 5825 5824 5823 5822 5821 5820 5820 5819 5818 5817 5817 5817 5817 5817 5817 5817 5817 5817 5817 5818 5818 5818 5819 5819 5820
5839 5838 5837 5836 5835 5834 5833 5832 5832 5831 5830 5828 5827 5826 5825 5824 5823 5822 5821 5820 5819 5818 5817 5816 5816 5815 5814 5813 5813 5813 5813 5813 5813 5813 5813 5813 5814 5814 5814 5814 5815 5815 5815
5835 5834 5833 5832 5831 5830 5829 5828 5828 5826 5825 5824 5823 5822 5821 5819 5818 5818 5816 5815 5814 5813 5812 5812 5811 5810 5810 5809 5809 5809 5809 5809 5809 5809 5809 5810 5810 5810 5810 5810 5811 5811 5811
5832 5831 5830 5828 5827 5826 5825 5824 5823 5822 5821 5820 5819 5817 5816 5814 5813 5812 5811 5810 5809 5808 5807 5807 5806 5805 5805 5804 5804 5804 5804 5804 5804 5804 5805 5805 5806 5806 5806 5806 5807 5807 5807
5828 5827 5826 5825 5823 5822 5821 5820 5819 5818 5817 5815 5814 5812 5811 5810 5808 5807 5806 5805 5804 5803 5802 5802 5801 5800 5800 5799 5799 5799 5799 5799 5799 5799 5800 5800 5801 5801 5802 5802 5802 5803 5803
5824 5823 5822 5820 5819 5818 5817 5815 5814 5813 5812 5810 5809 5807 5806 5804 5803 5801 5800 5799 5798 5798 5797 5796 5795 5795 5794 5794 5794 5794 5794 5794 5794 5794 5795 5795 5796 5796 5797 5797 5798 5798 5799
5820 5819 5817 5816 5815 5813 5812 5811 5809 5808 5806 5805 5803 5801 5800 5798 5797 5795 5794 5793 5792 5792 5791 5791 5790 5789 5788 5788 5788 5788 5788 5788 5788 5789 5789 5789 5790 5791 5791 5792 5792 5793 5794
5816 5814 5813 5812 5810 5809 5807 5806 5804 5803 5801 5799 5797 5795 5793 5792 5790 5789 5788 5787 5786 5786 5785 5784 5784 5783 5782 5782 5782 5781 5782 5782 5782 5782 5782 5783 5783 5784 5785 5786 5787 5787 5788
5811 5809 5808 5807 5805 5804 5802 5800 5799 5797 5795 5793 5791 5789 5787 5785 5784 5782 5781 5780 5779 5779 5778 5778 5777 5776 5776 5775 5775 5775 5775 5775 5775 5775 5775 5776 5776 5777 5778 5779 5780 5781 5781
5805 5804 5803 5801 5799 5798 5796 5795 5793 5790 5788 5786 5784 5782 5780 5778 5777 5776 5774 5773 5772 5771 5771 5771 5770 5769 5769 5768 5768 5768 5767 5767 5767 5768 5768 5769 5769 5770 5771 5772 5773 5774 5775
5799 5798 5797 5795 5794 5792 5790 5788 5786 5784 5782 5779 5777 5775 5773 5771 5770 5769 5768 5767 5765 5764 5763 5763 5762 5762 5761 5761 5761 5760 5760 5759 5760 5760 5761 5761 5762 5763 5764 5765 5766 5767 5768
5793 5792 5790 5789 5787 5785 5783 5781 5779 5777 5774 5772 5770 5768 5766 5764 5763 5762 5761 5760 5758 5757 5756 5755 5755 5754 5754 5753 5753 5753 5752 5752 5752 5752 5753 5754 5754 5755 5756 5757 5758 5759 5760
5787 5785 5784 5782 5780 5778 5776 5774 5772 5769 5767 5764 5762 5760 5759 5758 5756 5755 5754 5753 5751 5750 5749 5748 5747 5746 5746 5745 5745 5745 5745 5744 5744 5745 5745 5745 5746 5747 5748 5749 5751 5752 5753
5780 5778 5777 5775 5773 5771 5769 5766 5764 5762 5759 5757 5755 5753 5752 5750 5749 5748 5747 5746 5744 5743 5742 5740 5740 5739 5738 5737 5737 5736 5736 5736 5737 5737 5737 5737 5738 5739 5740 5741 5743 5744 5745
5772 5771 5769 5768 5766 5764 5761 5759 5756 5754 5752 5749 5748 5746 5744 5743 5742 5740 5739 5738 5737 5735 5734 5733 5732 5731 5730 5729 5729 5728 5728 5728 5729 5729 5728 5729 5730 5731 5732 5733 5734 5735 5736
5765 5763 5762 5760 5758 5756 5754 5751 5749 5746 5744 5742 5740 5738 5737 5735 5734 5732 5731 5730 5728 5727 5726 5725 5724 5723 5722 5722 5720 5720 5719 5719 5720 5720 5720 5720 5721 5722 5724 5725 5726 5727 5727
5757 5755 5754 5752 5750 5747 5745 5743 5740 5738 5735 5733 5731 5730 5728 5727 5725 5724 5722 5721 5720 5718 5717 5716 5715 5714 5714 5713 5712 5711 5711 5710 5711 5711 5711 5712 5712 5713 5714 5716 5717 5717 5718
5748 5747 5745 5743 5741 5739 5736 5734 5731 5729 5727 5725 5723 5721 5719 5718 5716 5714 5713 5712 5711 5709 5708 5707 5706 5705 5704 5704 5703 5702 5702 5702 5702 5702 5702 5702 5703 5704 5705 5706 5707 5708 5708
5739 5738 5736 5734 5732 5730 5727 5725 5722 5720 5718 5716 5714 5712 5710 5709 5707 5705 5703 5702 5701 5700 5698 5698 5697 5696 5695 5695 5694 5693 5693 5693 5693 5693 5693 5693 5694 5694 5696 5696 5697 5697 5698